SL-8 DEB

Satellite information

Favourite Embed

Satellite Type and Status

DEBRISIN ORBIT

Key statistics

Satellite SL-8 DEB at a glance.

Uptime

11822

Days in orbit

Revolutions

≈ 14.5

Per day

Orbit

LEO

Low Earth Orbit

Inclination

74.0

Latest

Satellite identification and parameters

Extended collection of information and parameters for SL-8 DEB.

Object identification

Identified? True

Debris? True

Object name: SL-8 DEB

International designator: 1993-036C

Object number (NORAD): 23007

Object ID (CCSDS): 23007

Country: COMMONWEALTH OF INDEPENDENT STATES (CIS)

Current information (Y/N): Y

RCS size: SMALL

Orbital parameters

Period: 99.462 minutes

Inclination: 74.0259 deg

SMA: 7111.015 km

Apoapsis: 740.946 km

Periapsis: 724.814 km

RAAN: 191.7575 deg

Eccentricy: 0.00113427

Argument of periapsis: 203.9427 deg

Mean anomaly: 213.0807 deg

Mean motion: 14.47789357 rev/day

Mean motion (dot): 0.00001774 rev/day2

B* drag term: 0.00048667909 1/REarth

Two-line elements (TLE)

Creation date: Oct. 27, 2025, 2:46 a.m.

Reference frame: TEME

Reference center: EARTH

Epoch: Oct. 26, 2025, 6:22 p.m. UTC

TLE line 0: 0 SL-8 DEB

TLE line 1: 1 23007U 93036C 25299.76550456 .00001774 00000-0 48668-3 0 9992

TLE line 2: 2 23007 74.0259 191.7575 0011343 203.9427 213.0807 14.47789357696282

Live tracking on map

Real-time ground track for satellite SL-8 DEB.

In-orbit conjunctions

A list of the most updated potential collisions computed for object SL-8 DEB.

Target Orbit TCA Probability of collision Miss distance Type
SS 2 LEO 2025-03-04 05:51:29 0.0004658221 904.0 (m) PAYLOAD

Associated space launch

Military communications satellite. Destroyed in a collision with Iridium 33.

SL-8 DEB was lifted into orbit during the mission ‘Kosmos-3M | Strela-2M 51’, on board a Kosmos-3M space rocket.

The launch took place on June 16, 1993, 4:17 a.m. from 132/1 (132L).

For more information about the launch, click the button.

Launch to space Kosmos-3M | Strela-2M 51
Kosmos-3M | Strela-2M 51

Agency: N/A

Status: Launch Successful

Launch date: June 16, 1993, 4:17 a.m. UTC

Rocket: Kosmos-3M

Launch pad: 132/1 (132L)

Location: Plesetsk Cosmodrome, Russian Federation

...

Latest news about this satellite

There are no fresh news available about this satellite. Check back as we update our databases every day.


Newsletter sign-up

Weekly statistics, charts and insights to help you stay on top of the space industry.